AEE4FA EDDF-LGIR

Flight info

Callsign AEE4FA
Flight time N/A
Altitude 35000
Route CINDY8S/18 CINDY Z74 LAMPU DCT NOMBO Y161 MAH DCT VAVOR DCT RADIZ DCT LUMUS DCT EBITI DCT DEVUL DCT EVTON DCT SOLGU DCT NILKU DCT AKIKA DCT MAVAR DCT BITLA UN132 KEA UL607 GIVIS UT514 XAVIS
Aircraft A321/M-SDE3FGHIRWY/LB1

Departure

Time 2026-05-07 16:22
Airport Frankfurt Main Airport (EDDF)

Arrival

Time N/A
Airport Heraklion International Nikos Kazantzakis Airport (LGIR)
Time Latitude Longitude Altitude Speed Heading
2026-05-07 15:49 50.04491 8.56537 351 ft 0 kts 165°
2026-05-07 16:05 50.04505 8.56532 351 ft 2 kts 165°
2026-05-07 16:05 50.04519 8.56525 351 ft 2 kts 155°
2026-05-07 16:05 50.04532 8.56513 351 ft 2 kts 143°
2026-05-07 16:05 50.04543 8.56498 351 ft 2 kts 131°
2026-05-07 16:06 50.04552 8.56479 351 ft 2 kts 131°
2026-05-07 16:06 50.04564 8.56466 351 ft 2 kts 162°
2026-05-07 16:06 50.04579 8.56462 351 ft 2 kts 185°
2026-05-07 16:06 50.04590 8.56466 351 ft 0 kts 203°
2026-05-07 16:07 50.04596 8.56471 351 ft 0 kts 206°
2026-05-07 16:09 50.04596 8.56470 351 ft 0 kts 206°
2026-05-07 16:10 50.04595 8.56469 351 ft 0 kts 206°
2026-05-07 16:10 50.04583 8.56461 351 ft 7 kts 204°
2026-05-07 16:11 50.04518 8.56372 351 ft 15 kts 244°
2026-05-07 16:11 50.04470 8.56177 351 ft 21 kts 250°
2026-05-07 16:11 50.04422 8.56040 351 ft 12 kts 206°
2026-05-07 16:11 50.04355 8.56053 351 ft 0 kts 159°
2026-05-07 16:12 50.04314 8.56073 351 ft 12 kts 175°
2026-05-07 16:12 50.04245 8.55953 351 ft 20 kts 250°
2026-05-07 16:12 50.04184 8.55696 351 ft 30 kts 250°
2026-05-07 16:13 50.04114 8.55401 351 ft 28 kts 250°
2026-05-07 16:13 50.04048 8.55128 351 ft 26 kts 249°
2026-05-07 16:13 50.03988 8.54874 351 ft 24 kts 250°
2026-05-07 16:13 50.03931 8.54636 351 ft 22 kts 250°
2026-05-07 16:14 50.03872 8.54394 351 ft 23 kts 242°
2026-05-07 16:14 50.03794 8.54182 351 ft 22 kts 250°
2026-05-07 16:14 50.03741 8.53962 351 ft 20 kts 250°
2026-05-07 16:14 50.03692 8.53756 351 ft 19 kts 250°
2026-05-07 16:15 50.03642 8.53561 351 ft 20 kts 249°
2026-05-07 16:15 50.03589 8.53342 351 ft 20 kts 250°
2026-05-07 16:15 50.03540 8.53136 351 ft 19 kts 250°
2026-05-07 16:15 50.03493 8.52940 351 ft 17 kts 249°
2026-05-07 16:16 50.03460 8.52821 351 ft 0 kts 246°
2026-05-07 16:16 50.03458 8.52815 351 ft 1 kts 246°
2026-05-07 16:17 50.03454 8.52801 351 ft 1 kts 246°
2026-05-07 16:17 50.03448 8.52779 351 ft 2 kts 248°
2026-05-07 16:17 50.03441 8.52750 351 ft 3 kts 250°
2026-05-07 16:17 50.03439 8.52740 351 ft 0 kts 250°
2026-05-07 16:20 50.03438 8.52737 351 ft 0 kts 250°
2026-05-07 16:20 50.03419 8.52660 351 ft 15 kts 250°
2026-05-07 16:20 50.03355 8.52594 351 ft 4 kts 178°
2026-05-07 16:20 50.03352 8.52595 351 ft 0 kts 178°
2026-05-07 16:21 50.03276 8.52597 351 ft 39 kts 180°
2026-05-07 16:21 50.02753 8.52601 351 ft 108 kts 180°
2026-05-07 16:22 50.01799 8.52613 351 ft 166 kts 180°
2026-05-07 16:22 50.00532 8.52619 582 ft 193 kts 181°
2026-05-07 16:22 49.99202 8.52624 1296 ft 192 kts 181°
2026-05-07 16:22 49.97897 8.52641 2088 ft 187 kts 179°
2026-05-07 16:23 49.96644 8.53162 2589 ft 194 kts 147°
2026-05-07 16:23 49.95761 8.54816 2832 ft 206 kts 120°
2026-05-07 16:23 49.95074 8.56819 3082 ft 219 kts 118°
2026-05-07 16:23 49.94384 8.59021 3347 ft 234 kts 110°
2026-05-07 16:24 49.94011 8.61565 3582 ft 251 kts 95°
2026-05-07 16:24 49.93895 8.64356 3923 ft 266 kts 91°
2026-05-07 16:24 49.93800 8.67244 4516 ft 272 kts 96°
2026-05-07 16:24 49.93167 8.69974 5178 ft 275 kts 126°
2026-05-07 16:25 49.91780 8.72000 5869 ft 276 kts 145°
2026-05-07 16:25 49.90214 8.73680 6515 ft 280 kts 147°
2026-05-07 16:25 49.88649 8.75659 7177 ft 284 kts 133°
2026-05-07 16:25 49.87825 8.77258 7632 ft 285 kts 123°
2026-05-07 16:26 49.86802 8.79890 8317 ft 288 kts 119°
2026-05-07 16:26 49.85831 8.82627 8983 ft 292 kts 118°
2026-05-07 16:26 49.84864 8.85371 9639 ft 295 kts 118°
2026-05-07 16:26 49.84209 8.87209 10058 ft 297 kts 119°
2026-05-07 16:27 49.82843 8.91016 10643 ft 311 kts 120°
2026-05-07 16:27 49.81765 8.93989 10921 ft 327 kts 120°
2026-05-07 16:27 49.80624 8.97123 11026 ft 339 kts 120°
2026-05-07 16:27 49.79444 9.00360 11067 ft 344 kts 120°
2026-05-07 16:28 49.78270 9.03582 11528 ft 349 kts 120°
2026-05-07 16:28 49.77102 9.06867 12257 ft 348 kts 117°
2026-05-07 16:28 49.76140 9.10299 12842 ft 352 kts 110°
2026-05-07 16:28 49.75433 9.13903 13415 ft 355 kts 104°
2026-05-07 16:29 49.74670 9.17553 14002 ft 358 kts 114°
2026-05-07 16:29 49.73460 9.20908 14560 ft 360 kts 126°
2026-05-07 16:29 49.71904 9.23890 15121 ft 362 kts 131°
2026-05-07 16:29 49.70226 9.26807 15685 ft 364 kts 132°
2026-05-07 16:30 49.68529 9.29726 16227 ft 367 kts 132°
2026-05-07 16:30 49.66831 9.32675 16760 ft 370 kts 131°
2026-05-07 16:30 49.65137 9.35645 17288 ft 372 kts 131°
2026-05-07 16:30 49.63414 9.38628 17807 ft 374 kts 134°
2026-05-07 16:31 49.61526 9.41351 18302 ft 376 kts 141°
2026-05-07 16:31 49.59388 9.43742 18787 ft 378 kts 148°
2026-05-07 16:31 49.57162 9.45832 19264 ft 381 kts 150°
2026-05-07 16:31 49.54869 9.47903 19730 ft 383 kts 150°
2026-05-07 16:32 49.52578 9.49966 20179 ft 386 kts 150°
2026-05-07 16:32 49.50259 9.52064 20622 ft 389 kts 150°
2026-05-07 16:32 49.47936 9.54172 21043 ft 392 kts 150°
2026-05-07 16:32 49.45579 9.56313 21480 ft 394 kts 150°
2026-05-07 16:33 49.43208 9.58468 21911 ft 396 kts 150°
2026-05-07 16:33 49.40845 9.60615 22319 ft 398 kts 150°
2026-05-07 16:33 49.38462 9.62779 22718 ft 401 kts 150°
2026-05-07 16:33 49.36099 9.64986 23104 ft 403 kts 147°
2026-05-07 16:34 49.33796 9.67541 23487 ft 406 kts 142°
2026-05-07 16:34 49.31650 9.70429 23860 ft 409 kts 137°
2026-05-07 16:34 49.29643 9.73473 24225 ft 411 kts 136°
2026-05-07 16:34 49.27639 9.76565 24576 ft 413 kts 135°
2026-05-07 16:35 49.25615 9.79682 24918 ft 415 kts 135°
2026-05-07 16:35 49.23560 9.82832 25249 ft 418 kts 136°
2026-05-07 16:35 49.21507 9.85963 25590 ft 419 kts 136°
2026-05-07 16:35 49.19434 9.89115 25921 ft 421 kts 136°
2026-05-07 16:36 49.17357 9.92265 26241 ft 423 kts 136°
2026-05-07 16:36 49.15271 9.95423 26554 ft 425 kts 136°
2026-05-07 16:36 49.13172 9.98595 26860 ft 427 kts 136°
2026-05-07 16:36 49.11066 10.01773 27158 ft 429 kts 136°
2026-05-07 16:37 49.08931 10.04991 27447 ft 431 kts 135°
2026-05-07 16:37 49.06812 10.08186 27712 ft 433 kts 135°
2026-05-07 16:37 49.04630 10.11392 27966 ft 436 kts 137°
2026-05-07 16:37 49.02398 10.14550 28234 ft 438 kts 137°
2026-05-07 16:38 49.00156 10.17689 28509 ft 440 kts 137°
2026-05-07 16:38 48.97916 10.20832 28767 ft 441 kts 137°
2026-05-07 16:38 48.95669 10.23993 29030 ft 443 kts 137°
2026-05-07 16:38 48.93397 10.27200 29301 ft 444 kts 137°
2026-05-07 16:39 48.91130 10.30404 29530 ft 447 kts 137°
2026-05-07 16:39 48.88856 10.33608 29756 ft 448 kts 137°
2026-05-07 16:39 48.86537 10.36853 29990 ft 450 kts 137°
2026-05-07 16:39 48.84239 10.40071 30218 ft 452 kts 137°
2026-05-07 16:40 48.81965 10.43462 30452 ft 453 kts 134°
2026-05-07 16:40 48.79807 10.46917 30732 ft 453 kts 133°
2026-05-07 16:40 48.77665 10.50348 31036 ft 452 kts 134°
2026-05-07 16:40 48.75519 10.53782 31325 ft 452 kts 134°
2026-05-07 16:41 48.73364 10.57225 31593 ft 451 kts 134°
2026-05-07 16:41 48.71183 10.60706 31872 ft 451 kts 134°
2026-05-07 16:41 48.69052 10.64101 32146 ft 450 kts 134°
2026-05-07 16:41 48.66886 10.67553 32416 ft 450 kts 135°
2026-05-07 16:42 48.64749 10.70963 32680 ft 449 kts 135°
2026-05-07 16:42 48.62592 10.74397 32933 ft 449 kts 135°
2026-05-07 16:42 48.60456 10.77786 33175 ft 448 kts 136°
2026-05-07 16:42 48.58309 10.81189 33398 ft 448 kts 135°
2026-05-07 16:43 48.56173 10.84602 33589 ft 449 kts 135°
2026-05-07 16:43 48.54024 10.88043 33765 ft 450 kts 135°
2026-05-07 16:43 48.51882 10.91470 33942 ft 451 kts 136°
2026-05-07 16:43 48.49752 10.94867 34111 ft 452 kts 136°
2026-05-07 16:44 48.47587 10.98292 34286 ft 452 kts 136°
2026-05-07 16:44 48.45388 11.01730 34469 ft 452 kts 136°
2026-05-07 16:44 48.43216 11.05113 34641 ft 453 kts 136°
2026-05-07 16:44 48.41047 11.08484 34800 ft 454 kts 136°
2026-05-07 16:45 48.38848 11.11896 34956 ft 454 kts 137°
2026-05-07 16:45 48.34434 11.18734 35003 ft 456 kts 137°
2026-05-07 16:46 48.30061 11.25559 35008 ft 456 kts 135°
2026-05-07 16:46 48.26051 11.32913 35010 ft 458 kts 128°
2026-05-07 16:47 48.22596 11.40942 35010 ft 461 kts 122°
2026-05-07 16:47 48.19403 11.49242 35010 ft 461 kts 122°
2026-05-07 16:48 48.16198 11.57535 35010 ft 461 kts 122°
2026-05-07 16:48 48.12953 11.65880 35011 ft 467 kts 123°
2026-05-07 16:49 48.09663 11.74338 35011 ft 474 kts 123°
2026-05-07 16:49 48.06334 11.82858 35010 ft 478 kts 123°
2026-05-07 16:50 48.02976 11.91397 35010 ft 479 kts 123°
2026-05-07 16:50 47.99586 11.99984 35010 ft 479 kts 123°
2026-05-07 16:51 47.96082 12.08382 35010 ft 477 kts 128°
2026-05-07 16:51 47.92027 12.16112 35011 ft 474 kts 135°
2026-05-07 16:52 47.87405 12.23046 35010 ft 470 kts 142°
2026-05-07 16:52 47.82406 12.29300 35010 ft 469 kts 144°
2026-05-07 16:53 47.77385 12.35533 35010 ft 470 kts 143°
2026-05-07 16:53 47.72405 12.41734 35010 ft 469 kts 143°
2026-05-07 16:54 47.67403 12.47957 35010 ft 470 kts 144°
2026-05-07 16:54 47.62507 12.54314 35010 ft 472 kts 140°
2026-05-07 16:55 47.57958 12.61383 35010 ft 475 kts 136°
2026-05-07 16:55 47.53578 12.68436 35009 ft 475 kts 137°
2026-05-07 16:56 47.49124 12.75601 35010 ft 474 kts 137°
2026-05-07 16:56 47.42406 12.86324 35010 ft 475 kts 137°
2026-05-07 16:57 47.37910 12.93465 35010 ft 475 kts 138°
2026-05-07 16:57 47.33443 13.00538 35010 ft 474 kts 138°
2026-05-07 16:58 47.28949 13.07637 35006 ft 475 kts 138°
2026-05-07 16:58 47.24458 13.14713 35001 ft 474 kts 138°
2026-05-07 16:59 47.19966 13.21771 34994 ft 474 kts 138°
2026-05-07 16:59 47.15435 13.28865 34988 ft 475 kts 138°
2026-05-07 17:00 47.10943 13.35882 34985 ft 475 kts 138°
2026-05-07 17:00 47.06414 13.42936 34984 ft 475 kts 138°
2026-05-07 17:01 47.01906 13.49943 34984 ft 475 kts 139°
2026-05-07 17:01 46.97389 13.56944 34984 ft 475 kts 139°
2026-05-07 17:02 46.92836 13.63984 34984 ft 476 kts 139°
2026-05-07 17:02 46.88305 13.70988 34984 ft 475 kts 140°
2026-05-07 17:03 46.83738 13.77991 34984 ft 475 kts 140°
2026-05-07 17:03 46.79213 13.84919 34984 ft 476 kts 140°
2026-05-07 17:04 46.74633 13.91919 34983 ft 477 kts 140°
2026-05-07 17:04 46.70085 13.98856 34982 ft 477 kts 140°
2026-05-07 17:05 46.65482 14.05862 34978 ft 475 kts 140°
2026-05-07 17:05 46.60929 14.12761 34972 ft 476 kts 141°
2026-05-07 17:06 46.56411 14.19720 34965 ft 477 kts 139°
2026-05-07 17:06 46.51934 14.26855 34959 ft 478 kts 139°
2026-05-07 17:07 46.47472 14.33936 34957 ft 478 kts 139°
2026-05-07 17:07 46.42973 14.41033 34955 ft 478 kts 139°
2026-05-07 17:08 46.38505 14.48054 34955 ft 478 kts 139°
2026-05-07 17:08 46.33996 14.55119 34955 ft 478 kts 139°
2026-05-07 17:09 46.29503 14.62141 34956 ft 478 kts 139°
2026-05-07 17:09 46.24990 14.69189 34954 ft 476 kts 140°
2026-05-07 17:10 46.20501 14.76195 34955 ft 476 kts 140°
2026-05-07 17:10 46.15998 14.83177 34955 ft 476 kts 140°
2026-05-07 17:11 46.11505 14.90117 34955 ft 475 kts 140°
2026-05-07 17:11 46.07024 14.97021 34954 ft 475 kts 140°
2026-05-07 17:12 46.02580 15.04042 34955 ft 476 kts 139°
2026-05-07 17:12 45.98169 15.11174 34953 ft 478 kts 139°
2026-05-07 17:13 45.93734 15.18289 34955 ft 479 kts 139°
2026-05-07 17:13 45.89276 15.25404 34957 ft 479 kts 139°
2026-05-07 17:14 45.84804 15.32476 34956 ft 479 kts 139°
2026-05-07 17:14 45.80365 15.39491 34955 ft 478 kts 139°
2026-05-07 17:15 45.75915 15.46523 34955 ft 478 kts 139°
2026-05-07 17:15 45.71458 15.53553 34956 ft 478 kts 139°
2026-05-07 17:16 45.66992 15.60581 34955 ft 477 kts 139°
2026-05-07 17:16 45.62512 15.67620 34954 ft 477 kts 140°
2026-05-07 17:17 45.58084 15.74588 34955 ft 476 kts 140°
2026-05-07 17:17 45.53616 15.81581 34957 ft 476 kts 140°
2026-05-07 17:18 45.49167 15.88513 34962 ft 476 kts 140°
2026-05-07 17:18 45.44707 15.95442 34969 ft 477 kts 140°
2026-05-07 17:19 45.40239 16.02366 34976 ft 476 kts 139°
2026-05-07 17:19 45.35767 16.09282 34978 ft 476 kts 139°
2026-05-07 17:20 45.31302 16.16168 34981 ft 476 kts 139°
2026-05-07 17:20 45.26808 16.23078 34980 ft 476 kts 139°
2026-05-07 17:21 45.22314 16.29966 34982 ft 477 kts 139°
2026-05-07 17:21 45.17808 16.36853 34981 ft 477 kts 139°
2026-05-07 17:22 45.13284 16.43643 34982 ft 475 kts 141°
2026-05-07 17:22 45.08420 16.49902 34982 ft 473 kts 145°
2026-05-07 17:23 45.03463 16.56022 34986 ft 473 kts 145°
2026-05-07 17:23 44.98524 16.62111 34991 ft 473 kts 145°
2026-05-07 17:24 44.93570 16.68215 34999 ft 473 kts 145°
2026-05-07 17:24 44.88625 16.74313 35006 ft 473 kts 146°
2026-05-07 17:25 44.83679 16.80349 35007 ft 473 kts 146°
2026-05-07 17:25 44.78699 16.86420 35008 ft 473 kts 146°
2026-05-07 17:26 44.73750 16.92449 35008 ft 473 kts 145°
2026-05-07 17:26 44.68755 16.98511 35007 ft 474 kts 146°
2026-05-07 17:27 44.63770 17.04492 35008 ft 474 kts 146°
2026-05-07 17:27 44.58741 17.10499 35008 ft 475 kts 146°
2026-05-07 17:28 44.53731 17.16470 35008 ft 475 kts 146°